Weather History for KACK - March, 2013

Change the Weather History Date:

Wednesday, March 6, 2013

  Actual Average Record
Temperature  
Mean Temperature 38 °F -  
Max Temperature 42 °F 42 °F 53 °F (1974)
Min Temperature 35 °F 29 °F 12 °F (2007)
Degree Days  
Heating Degree Days 26    
Moisture  
Dew Point 35 °F    
Average Humidity 84    
Maximum Humidity 93    
Minimum Humidity 70    
Precipitation  
Precipitation 0.07 in - - ()
Sea Level Pressure  
Sea Level Pressure 29.95 in    
Wind  
Wind Speed 13 mph (NE)    
Max Wind Speed 36 mph    
Max Gust Speed 54 mph    
Visibility 9 miles    
Events Rain    
Averages and records for this station are not official NWS values.
T = Trace of Precipitation, MM = Missing Value Source: NWS Daily Summary

Daily Weather History Graph

Daily Weather History Graph

Search for Another Location

Airport or City:

Trip Planner

Search our weather history database for the weather conditions in past years. The results will help you decide how hot, cold, wet, or windy it might be!

Date:

Astronomy

Mar. 06, 2013 Rise Set
Actual Time 6:06 AM EST 5:37 PM EST
Civil Twilight 5:38 AM EST 6:04 PM EST
Nautical Twilight 5:06 AM EST 6:36 PM EST
Astronomical Twilight 4:34 AM EST 7:08 PM EST
Moon 2:15 AM EST (3/6) 12:12 PM EST (3/6)
Length of Visible Light 12h 25m
Length of Day
11h 30m
Waning Crescent, 30% of the Moon is Illuminated
Mar 6
Waning Crescent
Mar 11
New
Mar 19
First Quarter
Mar 27
Full
Apr 3
Last Quarter

Hourly Weather History & Observations

Time (EST) Temp. Windchill Dew Point Humidity Pressure Visibility Wind Dir Wind Speed Gust Speed Precip Events Conditions
12:51 AM 35.6 °F 31.7 °F 33.8 °F 93% 30.00 in 10.0 mi ENE 4.6 mph - N/A   Mostly Cloudy
12:53 AM 36.0 °F 32.1 °F 33.1 °F 89% 30.01 in 10.0 mi East 4.6 mph - N/A   Mostly Cloudy
1:53 AM 36.0 °F 31.1 °F 34.0 °F 93% 30.01 in 10.0 mi NNE 5.8 mph - 0.00 in   Mostly Cloudy
2:02 AM 35.6 °F 30.7 °F 33.8 °F 93% 30.00 in 10.0 mi NNE 5.8 mph - N/A   Scattered Clouds
2:33 AM 35.6 °F 32.8 °F 33.8 °F 93% 30.00 in 8.0 mi NNE 3.5 mph - 0.01 in Rain Light Rain
2:53 AM 37.0 °F 34.5 °F 34.0 °F 89% 30.00 in 10.0 mi NE 3.5 mph - 0.01 in   Overcast
3:02 AM 37.4 °F - 35.6 °F 93% 30.00 in 10.0 mi Calm Calm - N/A   Mostly Cloudy
3:53 AM 37.0 °F 34.5 °F 35.1 °F 93% 30.01 in 10.0 mi ENE 3.5 mph - 0.00 in Rain Light Rain
4:32 AM 37.4 °F 30.8 °F 33.8 °F 87% 30.01 in 10.0 mi NE 9.2 mph - 0.00 in Rain Light Rain
4:53 AM 37.9 °F 31.5 °F 35.1 °F 89% 30.00 in 10.0 mi NE 9.2 mph - 0.01 in   Overcast
5:03 AM 37.4 °F 30.8 °F 35.6 °F 93% 29.99 in 10.0 mi NE 9.2 mph - N/A   Overcast
5:33 AM 39.2 °F 31.6 °F 35.6 °F 87% 29.99 in 10.0 mi ENE 12.7 mph - 0.00 in Rain Light Rain
5:44 AM 39.2 °F 33.0 °F 35.6 °F 87% 29.99 in 10.0 mi ENE 9.2 mph - 0.00 in Rain Light Rain
5:53 AM 39.0 °F 33.4 °F 36.0 °F 89% 29.99 in 10.0 mi ENE 8.1 mph - 0.00 in   Overcast
6:02 AM 39.2 °F 30.2 °F 35.6 °F 87% 29.99 in 6.0 mi ENE 17.3 mph 25.3 mph 0.00 in Rain Light Rain
6:09 AM 39.2 °F 32.0 °F 35.6 °F 87% 29.99 in 6.0 mi ENE 11.5 mph 25.3 mph 0.00 in Rain Light Rain
6:41 AM 39.2 °F 31.2 °F 35.6 °F 87% 30.00 in 10.0 mi ENE 13.8 mph 24.2 mph 0.00 in   Overcast
6:51 AM 39.2 °F 29.8 °F 35.6 °F 87% 30.00 in 10.0 mi ENE 18.4 mph 26.5 mph 0.00 in   Overcast
7:53 AM 39.9 °F 30.2 °F 36.0 °F 86% 30.00 in 9.0 mi ENE 20.7 mph 29.9 mph 0.00 in   Overcast
8:46 AM 41.0 °F 31.4 °F 35.6 °F 81% 30.01 in 10.0 mi ENE 21.9 mph 31.1 mph N/A   Overcast
8:53 AM 41.0 °F 31.6 °F 35.1 °F 79% 30.01 in 9.0 mi ENE 20.7 mph 31.1 mph N/A   Overcast
9:53 AM 41.0 °F 31.4 °F 34.0 °F 76% 30.00 in 10.0 mi ENE 21.9 mph 34.5 mph 0.00 in   Overcast
10:53 AM 42.1 °F 32.1 °F 34.0 °F 73% 29.99 in 10.0 mi ENE 25.3 mph 41.4 mph 0.00 in   Overcast
11:53 AM 42.1 °F 32.1 °F 34.0 °F 73% 29.98 in 10.0 mi ENE 25.3 mph 34.5 mph 0.00 in   Overcast
12:27 PM 42.8 °F 33.1 °F 33.8 °F 70% 29.97 in 10.0 mi ENE 25.3 mph 33.4 mph N/A   Overcast
12:53 PM 42.1 °F 32.6 °F 33.1 °F 70% 29.95 in 10.0 mi ENE 23.0 mph 33.4 mph N/A   Overcast
1:53 PM 42.1 °F 32.8 °F 34.0 °F 73% 29.94 in 8.0 mi ENE 21.9 mph 34.5 mph N/A   Overcast
2:53 PM 42.1 °F 31.7 °F 34.0 °F 73% 29.92 in 8.0 mi ENE 27.6 mph 38.0 mph N/A   Overcast
3:53 PM 41.0 °F 29.8 °F 34.0 °F 76% 29.92 in 8.0 mi ENE 29.9 mph 40.3 mph N/A   Overcast
4:53 PM 41.0 °F 30.9 °F 34.0 °F 76% 29.89 in 7.0 mi ENE 24.2 mph 39.1 mph N/A   Overcast
5:53 PM 41.0 °F 29.8 °F 35.1 °F 79% 29.89 in 8.0 mi ENE 29.9 mph 44.9 mph N/A   Overcast
6:53 PM 41.0 °F 30.0 °F 35.1 °F 79% 29.88 in 9.0 mi NE 28.8 mph 42.6 mph N/A   Overcast
7:53 PM 41.0 °F 30.2 °F 35.1 °F 79% 29.87 in 9.0 mi NE 27.6 mph 44.9 mph N/A   Overcast
8:53 PM 41.0 °F 29.1 °F 34.0 °F 76% 29.83 in 9.0 mi NE 34.5 mph 47.2 mph N/A   Overcast
9:35 PM 39.2 °F 27.0 °F 35.6 °F 87% 29.83 in 7.0 mi NE 32.2 mph 42.6 mph N/A   Overcast
9:53 PM 41.0 °F 29.5 °F 35.1 °F 79% 29.83 in 8.0 mi NE 32.2 mph 54.1 mph N/A   Overcast
10:53 PM 39.9 °F 27.6 °F 35.1 °F 83% 29.84 in 6.0 mi NE 34.5 mph 46.0 mph 0.01 in Rain Light Rain
11:30 PM 39.2 °F 26.5 °F 35.6 °F 87% 29.82 in 3.0 mi NE 35.7 mph 46.0 mph 0.03 in Rain Light Rain
11:53 PM 39.0 °F 26.2 °F 36.0 °F 89% 29.81 in 4.0 mi NE 35.7 mph 50.6 mph 0.04 in Rain Light Rain